Location: Sungai Bunut
(2.6333°N, 113.7333°E)
Time: 19:11:43
(UTC+00:00)

Ariane H10+ - Pass Details

Date: 16 October 2021
Orbit: 236 x 7691 km, 6.8° (Epoch: 08 December)

Event Time Altitude Azimuth Distance (km) Brightness Sun altitude
Exits shadow 17:37:25 12° 88° (E) 4,081 5.9 -67.4°
Drops below altitude 10° 17:38:33 10° 87° (E) 4,519 6.1 -67.2°
Enters shadow 20:05:12 -60° 264° (W) 11,740 8.1 -31.3°
Maximum altitude 20:38:36 82° 357° (N) 2,768 4.6 -23.1°
